Skip Navigation Links
NOAA logo - Click to go to the NOAA homepage
NOAA's National Weather Service
Alaska Aviation Weather Unit
  NWS logo - Click to go to the NWS homepage
Left Navbar Graphic     17 AKDT = 01 GMT

   
NOAA is celebrating 200 years of science, service, and stewardship. Visit the NOAA 200th celebration Web site to learn more.
USA.gov is the U.S. Government's official Web portal to all Federal, state and local government Web resources and services.
Facebook
NWS on Facebook

Important Change Regarding the AAWU Web Presence

 

Over the last several months, the AAWU has been working to navigate its webpages to a nationally supported server. Security, as well as other needs, have necessitated the change.  In the process, we have made an effort to enhance the functionality of our website, as well as some of our products. As of June 27, 2017, aawu.arh.noaa.gov will be discontinued. The new AAWU web address is weather.gov/aawu. It is now live and will run in-parallel with the old site until it is discontinued. Please send any feedback or questions regarding the new webpages to nws.ar.aawu.webauthors@noaa.gov.  Thank you for your patience during this time of transition.
AAWU Home :: Display TAF Add Bookmark
TAF PABE 252331Z 2600/2624 17010KT P6SM FEW025 BKN050
     FM260900 15011G22KT 4SM -RA BR SCT004 BKN020
     FM261500 14009G20KT 2SM -RA BR SCT007 BKN015
     FM261800 13010G20KT P6SM VCSH SCT020 OVC040=
METAR PABE 251953Z 10005KT 10SM BKN150 13/07 A2996 RMK AO2 SLP145
     T01280067=

METAR PABE 252053Z 10004KT 10SM BKN150 16/07 A2993 RMK AO2 SLP138
     T01560067 58021=

METAR PABE 252153Z 18005KT 10SM BKN042 16/07 A2991 RMK AO2 SLP129
     T01610072=

METAR PABE 252253Z 08009KT 10SM FEW041 BKN055 18/07 A2987 RMK AO2 SLP117
     T01780072=

METAR PABE 252353Z VRB05KT 10SM SCT047 BKN060 18/07 A2985 RMK AO2 SLP109
     T01780067 10183 20117 56029=


NOAA's National Weather Service
Alaska Aviation Weather Unit
6930 Sand Lake Road
Anchorage, AK 99502-1845
Disclaimer
Credits
Glossary
Privacy Policy
About Us
Career Opportunities
Contact AAWU Internet Services Site last modified: April, 17th 2012